Regional Weather Roundup
Issued by NWS

Home | Current Version | Previous Version | Graphics & Text | Print | Product List | Glossary On
Versions: 1 2 3 4 5 6 7 8 9 10 11 12 13 14 15 16 17 18 19 20 21 22 23 24 25 26 27 28 29 30 31 32 33 34 35 36 37 38 39 40 41 42 43 44 45 46 47 48 49 50
130
ASUS43 KIND 231609
RWRIN

WEATHER ROUNDUP FOR INDIANA
NATIONAL WEATHER SERVICE INDIANAPOLIS IN
1200 PM EDT THU MAR 23 2017

NOTE: "FAIR" INDICATES FEW OR NO CLOUDS BELOW 12,000 FEET WITH NO
SIGNIFICANT WEATHER AND/OR OBSTRUCTIONS TO VISIBILITY.

* - STATION DOES NOT REPORT WEATHER SUCH AS PRECIPITATION OR FOG.

+ - STATION NOT QUALITY CONTROLLED BY THE NATIONAL WEATHER SERVICE.
    USE DATA WITH CAUTION...ESPECIALLY DEWPOINT AND RELATIVE
    HUMIDITY OBSERVATIONS.

INZ001>003-010>013-019-020-231700-
NORTHWEST INDIANA

CITY           SKY/WX    TMP DP  RH WIND       PRES   REMARKS
GARY /AIRPORT/ PTSUNNY   37  16  41 SE14      30.40F
KNOX *+        CLOUDY    34  -2  21 SE12      30.42F WCI  25
LA PORTE +     CLOUDY    33  17  51 SE10      30.42F WCI  25
MICHIGAN CITY+ CLOUDY    34  14  44 SE9       30.42S WCI  26
MONTICELLO +   CLOUDY    35  21  55 SE10      30.42S WCI  28
RENSSELAER +   CLOUDY    37  23  56 SE13      30.41F
VALPARAISO     CLOUDY    36  19  50 SE10      30.41F

$$

LMZ046-743>745-231700-
SOUTHERN LAKE MICHIGAN

STATION/POSITION TIME  TEMP    WIND        PRES    WAVE
                       AIR SEA DIR/SP/G            HT
                 (UTC) (F)     (DEG/KT/KT) (MB)    (FT)
BURNS HARBOR     1602   35     170/ 12/ 19 1029.8
MICHIGAN CITY    1540   33     130/ 10/ 12   N/A

$$

INZ004-005-014>016-021>024-231700-
NORTH CENTRAL INDIANA

CITY           SKY/WX    TMP DP  RH WIND       PRES   REMARKS
ELKHART        CLOUDY    34  10  37 SE12      30.43F WCI  25
GOSHEN         CLOUDY    34  14  43 SE13      30.44F WCI  25
LOGANSPORT +   CLOUDY    34  23  64 SE10      30.44S WCI  26
PERU/GRISSOM   CLOUDY    35  22  58 SE10      30.41S WCI  28
ROCHESTER +    MOSUNNY   36  21  55 SE9       30.44S
SOUTH BEND     CLOUDY   N/A N/A N/A SE12      30.43F
WARSAW +       CLOUDY    34  18  51 SE7       30.43F WCI  28

$$

INZ006>009-017-018-025>027-231700-
NORTHEAST INDIANA

CITY           SKY/WX    TMP DP  RH WIND       PRES   REMARKS
ANGOLA *+      MOSUNNY   34  10  37 SE13      30.46S WCI  25
AUBURN +       CLOUDY    34  16  47 SE10      30.46F WCI  26
FORT WAYNE     CLOUDY    36  19  50 SE15      30.45F
HUNTINGTON +   CLOUDY    36  18  49 SE10      30.43F
KENDALLVILLE + CLOUDY    33  14  44 SE15      30.44F WCI  23

$$

INZ028-029-035-036-043>045-051>053-231700-
WEST CENTRAL INDIANA

CITY           SKY/WX    TMP DP  RH WIND       PRES   REMARKS
CRAWFORDSVL +  CLOUDY    39  22  50 SE10      30.39F
GREENCASTLE +  PTSUNNY   41  21  45 SE9       30.40F
LAFAYETTE      MOSUNNY   41  23  48 SE12      30.40F
TERRE HAUTE    PTSUNNY   44  23  43 SE8       30.40S

$$

INZ030>032-037>040-046>048-054>057-064-065-231700-
CENTRAL INDIANA

CITY           SKY/WX    TMP DP  RH WIND       PRES   REMARKS
ANDERSON       CLOUDY    37  19  48 SE13      30.43F
CP ATTERBURY + SUNNY     43  21  42 SE8G17    30.42S
COLUMBUS       MOSUNNY   41  21  45 SE8       30.43S
FISHERS *+     CLOUDY    41  27  56 SE10      30.42S
FRANKFORT +    CLOUDY    42  25  51 SE13      30.42F
GREENWOOD *+   MOSUNNY   42  22  45 SE12      30.42S
INDIANAPOLIS   MOSUNNY   43  22  43 SE9       30.41S
-EAGLE CREEK   MOSUNNY   42  20  41 SE12G17   30.41R
KOKOMO +       CLOUDY    35  23  61 E7        30.44S WCI  29
MARION +       CLOUDY    35  20  55 SE15      30.42F WCI  25
MT COMFORT *+  CLOUDY    43  23  45 S13       30.41F
SHELBYVILLE    MOSUNNY   45  21  38 SE10      30.41S
ZIONSVILLE +   CLOUDY    39  22  51 SE12      30.42R

$$

INZ033-034-041-042-049-050-058-059-231700-
EAST CENTRAL INDIANA

CITY           SKY/WX    TMP DP  RH WIND       PRES   REMARKS
MUNCIE         CLOUDY    38  20  48 SE12      30.43F
RICHMOND +     CLOUDY    36  21  55 E15       30.43F

$$

INZ060-061-067>069-081>083-085>088-231700-
SOUTHWEST INDIANA

CITY           SKY/WX    TMP DP  RH WIND       PRES   REMARKS
EVANSVILLE     CLOUDY    42  25  50 SE5       30.38F
HUNTINGBURG *+ CLOUDY    44  22  41 E8        30.39F
WASHINGTON +   PTSUNNY   42  21  44 MISG      30.38F

$$

INZ062-063-066-070>080-084-089>092-231700-
SOUTH CENTRAL AND SOUTHEAST INDIANA

CITY           SKY/WX    TMP DP  RH WIND       PRES   REMARKS
BEDFORD +      MOSUNNY   43  18  36 E5        30.40R
BLOOMINGTON    CLOUDY    43  18  36 SE12      30.38F
MADISON *+     CLOUDY    43  18  36 E8        30.43S
NORTH VERNON + CLOUDY    41  16  36 E9        30.42F
SEYMOUR +      MOSUNNY   46  21  36 E6        30.42R

$$





USA.gov is the U.S. government's official web portal to all federal, state and local government web resources and services.